Vorticity
4 2 2 3 5 4 4 2 4 2 4 4 4 4 6 9 9 10 4 5 6 6 6 5 5 5 5 5 5 5 5 5 5
7 6 6 5 5 5 5 3 6 3 3 3 4 4 4 6 9 10 10 7 6 6 5 5 5 5 5 5 5 5 4 4 5
7 4 5 5 5 5 5 5 4 3 3 3 3 4 4 4 6 8 9 10 7 6 6 6 5 5 5 5 5 5 6 6 6
6 6 6 4 4 6 5 5 6 4 4 4 4 3 4 4 4 6 7 8 8 7 6 5 5 5 5 5 5 5 6 6 6
7 5 6 8 3 3 5 6 4 6 3 3 5 5 4 4 5 5 5 8 7 7 6 6 6 5 5 5 5 5 5 5 5
6 5 9 8 7 7 4 3 5 5 5 4 4 4 4 4 4 5 4 6 6 7 7 7 7 6 6 6 7 7 7 8 8
11 9 8 6 8 10 8 6 5 5 5 4 5 5 4 5 5 5 5 5 5 6 6 7 7 8 7 7 7 8 8 9 8
12 11 10 12 9 7 10 8 3 4 6 5 4 4 5 5 3 5 5 6 5 5 6 6 6 6 7 7 6 6 6 5 5
10 12 14 11 10 11 9 6 6 11 7 4 4 6 5 4 5 3 5 6 6 4 4 4 4 5 6 4 4 3 3 3 3
11 16 16 14 13 12 11 12 4 9 6 12 8 9 5 5 7 7 5 4 6 4 4 4 4 4 3 4 4 2 2 2 2
9 10 11 10 12 13 14 14 11 -1 11 6 4 5 8 8 7 6 8 6 5 6 4 4 4 4 4 3 4 4 3 3 4
9 9 10 15 18 13 14 13 16 17 -1 14 -5 11 3 6 1 4 5 4 6 4 4 5 4 4 4 4 4 3 5 4 7
8 12 13 11 10 10 16 17 16 16 19 0 18 2 8 5 7 4 5 6 3 6 4 3 4 6 5 4 3 5 3 5 5
11 15 26 21 18 11 11 14 21 20 18 16 0 19 3 11 6 5 8 6 8 9 7 2 6 6 6 5 6 4 4 6 4
11 18 17 17 18 21 23 25 22 19 21 21 20 -17 28 3 16 16 -7 1 5 -4 9 8 6 13 11 12 2 10 0 3 6
11 15 18 19 23 17 14 21 25 23 23 21 19 16 -27 26 26 24 -22 57 -9 -1 0 6 1 -6 64 40 -1 16 24 6 4
9 16 14 18 19 19 11 17 21 7 22 18 21 20 -4 15 -8 20 43 -15 33 26 -14 43 58 -26 -9 16 -0 -1 10 5 6
8 14 12 16 16 18 20 23 10 31 21 14 16 26 4 23 3 3 39 34 1 41 9 -26 8 9 1 -3 3 -12 4 7 3
7 7 10 15 9 19 24 20 26 16 21 19 12 20 -4 10 -3 -19 20 22 16 11 59 -11 45 23 -1 -4 0 16 5 2 1
7 5 7 11 11 13 23 21 18 21 15 15 15 10 8 -0 9 10 -12 -5 3 -8 20 56 52 59 76 72 -2 -6 -8 -3 0
Height
3155 3155 3155 3155 3155 3154 3154 3154 3154 3154 3153 3153 3153 3153 3153 3152 3151 3152 3153 3154 3154 3155 3155 3156 3156 3157 3157 3158 3158 3159 3159 3160 3160
3151 3151 3151 3152 3152 3152 3152 3151 3151 3151 3151 3151 3150 3150 3150 3150 3149 3149 3150 3151 3152 3153 3153 3154 3154 3155 3156 3156 3157 3157 3157 3158 3158
3146 3147 3146 3147 3147 3148 3149 3148 3148 3148 3148 3148 3148 3147 3147 3147 3147 3147 3148 3149 3149 3150 3151 3152 3152 3153 3154 3154 3155 3155 3156 3156 3156
3140 3140 3140 3141 3141 3142 3143 3144 3144 3144 3144 3144 3144 3144 3144 3144 3144 3144 3144 3146 3147 3147 3148 3149 3150 3151 3152 3152 3152 3153 3153 3154 3154
3134 3133 3134 3135 3135 3135 3136 3137 3138 3138 3139 3139 3139 3139 3140 3141 3141 3142 3142 3143 3143 3144 3145 3146 3147 3147 3148 3149 3150 3150 3150 3151 3151
3126 3126 3128 3128 3129 3130 3130 3131 3131 3132 3132 3133 3134 3134 3136 3137 3137 3139 3139 3140 3140 3141 3142 3143 3143 3144 3145 3145 3146 3147 3148 3148 3148
3118 3118 3119 3118 3120 3122 3122 3124 3125 3124 3125 3126 3127 3128 3131 3131 3133 3133 3135 3137 3137 3138 3138 3139 3140 3141 3142 3142 3143 3144 3144 3145 3145
3112 3111 3110 3110 3110 3110 3112 3114 3116 3117 3118 3120 3120 3122 3124 3126 3127 3129 3130 3132 3133 3134 3135 3136 3136 3137 3139 3140 3140 3141 3141 3142 3142
3104 3102 3102 3101 3101 3101 3102 3103 3106 3107 3109 3112 3113 3114 3116 3119 3121 3123 3125 3126 3128 3129 3130 3132 3132 3134 3134 3135 3136 3138 3139 3139 3139
3098 3096 3094 3093 3092 3091 3092 3093 3094 3097 3099 3102 3105 3106 3108 3111 3114 3116 3118 3120 3123 3123 3125 3126 3127 3128 3130 3131 3132 3133 3134 3135 3136
3092 3089 3087 3085 3083 3081 3080 3080 3082 3085 3088 3091 3095 3098 3101 3103 3105 3108 3111 3113 3116 3118 3119 3121 3122 3123 3124 3126 3127 3128 3130 3130 3131
3085 3082 3078 3075 3072 3070 3068 3068 3071 3073 3075 3079 3084 3088 3093 3096 3098 3101 3102 3106 3108 3111 3113 3115 3117 3118 3119 3121 3122 3123 3124 3125 3126
3080 3076 3070 3065 3061 3057 3055 3055 3055 3059 3065 3068 3072 3076 3082 3087 3090 3094 3096 3096 3100 3103 3106 3108 3110 3112 3113 3115 3116 3117 3118 3119 3120
3072 3066 3061 3055 3051 3047 3044 3044 3044 3045 3050 3056 3061 3066 3071 3077 3082 3085 3089 3089 3091 3095 3099 3101 3102 3104 3106 3107 3108 3109 3110 3111 3113
3065 3059 3052 3047 3043 3038 3035 3032 3033 3034 3039 3044 3050 3059 3060 3066 3071 3076 3080 3083 3085 3086 3090 3092 3093 3095 3096 3097 3099 3101 3102 3104 3106
3059 3053 3047 3041 3035 3031 3027 3024 3024 3026 3030 3034 3040 3050 3054 3054 3061 3065 3067 3069 3075 3080 3081 3082 3080 3084 3082 3081 3087 3092 3090 3095 3098
3055 3048 3042 3037 3031 3026 3022 3019 3019 3021 3025 3028 3033 3041 3051 3048 3050 3055 3058 3061 3065 3066 3059 3052 3065 3068 3057 3067 3076 3080 3086 3090 3091
3052 3045 3041 3036 3029 3023 3020 3017 3016 3015 3021 3024 3030 3036 3043 3046 3047 3050 3055 3056 3055 3054 3052 3054 3056 3059 3065 3067 3072 3076 3081 3082 3085
3050 3045 3040 3035 3029 3024 3020 3017 3016 3017 3021 3023 3027 3034 3040 3042 3044 3047 3049 3052 3053 3051 3054 3053 3055 3055 3058 3059 3063 3071 3074 3076 3077
3049 3045 3041 3036 3031 3026 3023 3020 3019 3019 3020 3023 3028 3033 3036 3039 3041 3045 3048 3049 3051 3049 3048 3050 3051 3052 3055 3057 3058 3065 3068 3068 3069